Retour au catalogue

FENGYUN 1C DEB

ActifPO
NORAD 30661·DEBRIS·🇨🇳 China

Lancé May 10, 1999 depuis Taiyuan Satellite Launch Center

Loading…

Prochains Passages (prochaines 24 heures)

TLE

FraisSource: Space-Track

Époque: Sep 13, 2026, 12:40 UTC

1 30661U 99025APT 26256.52802182  .00000105  00000-0  64591-4 0  9995
2 30661  99.4869  97.6688 0143744 351.1593   8.7054 14.21319318 18069

Suivez FENGYUN 1C DEB en temps réel avec AllMySat

Download on the App Store